Location: Lafig�re
(44.4503°N, 4.0357°E)
Time: 03:12:27
(UTC+00:00)

Transit 4A - Pass Details

Date: 23 January 2021
Orbit: 866 x 978 km, 66.8° (Epoch: 02 March)

Event Time Altitude Azimuth Distance (km) Brightness Sun altitude
Rises 05:54:44 0° 308° (NW) 3,598 - -13.6°
Reaches altitude 10° 05:59:58 10° 271° (W) 2,611 - -12.7°
Maximum altitude 06:00:58 10° 261° (W) 2,573 - -12.5°
Drops below altitude 10° 06:01:57 10° 251° (WSW) 2,595 - -12.4°
Exits shadow 06:02:00 10° 251° (WSW) 2,598 9.7 -12.4°
Sets 06:07:04 0° 213° (SSW) 3,494 10.7 -11.5°
